When you browse on this site, cookies collect data to enhance your experience and personalize the content and advertising you see.
Visit our Privacy Policy to learn more. By continuing to use the site, you agree to this use of cookies and data.
  • In Slovakia
  • List of Countries
  • For 7 days
  • Water Temperature
  • Weather Map
  • Weather Widgets
  • user-avatar
    Login

    Hourly Weather Córdoba

    Today, 31 May, Sunday

    Time Temperature Precipitation Wind Pressure Humidity
    00:00 +8°C° 0 mm 3 mps 729 mmHg 61%
    01:00 +7°C° 0 mm 2 mps 729 mmHg 62%
    02:00 +8°C° 0 mm 1 mps 730 mmHg 63%
    03:00 +8°C° 0 mm 1 mps 729 mmHg 63%
    04:00 +8°C° 0 mm 1 mps 729 mmHg 64%
    05:00 +7°C° 0 mm 1 mps 728 mmHg 65%
    06:00 +8°C° 0 mm 1 mps 729 mmHg 63%
    07:00 +8°C° 0 mm 1 mps 729 mmHg 62%
    08:00 +8°C° 0 mm 1 mps 730 mmHg 61%
    09:00 +10°C° 0 mm 1 mps 730 mmHg 53%
    10:00 +10°C° 0 mm 2 mps 730 mmHg 46%
    11:00 +13°C° 0 mm 2 mps 730 mmHg 38%
    12:00 +14°C° 0 mm 2 mps 729 mmHg 35%
    13:00 +15°C° 0 mm 2 mps 729 mmHg 31%
    14:00 +16°C° 0 mm 2 mps 728 mmHg 27%
    15:00 +15°C° 0 mm 2 mps 728 mmHg 29%
    16:00 +15°C° 0 mm 2 mps 728 mmHg 30%
    17:00 +14°C° 0 mm 1 mps 727 mmHg 32%
    18:00 +13°C° 0 mm 1 mps 728 mmHg 33%
    19:00 +12°C° 0 mm 1 mps 728 mmHg 35%
    20:00 +9°C° 0 mm 0 mps 729 mmHg 37%
    21:00 +9°C° 0 mm 0 mps 729 mmHg 38%
    22:00 +9°C° 0 mm 0 mps 729 mmHg 39%
    23:00 +8°C° 0 mm 0 mps 729 mmHg 41%

    Tomorrow, 1 June, Monday

    Time Temperature Precipitation Wind Pressure Humidity
    00:00 +8°C° 0 mm 0 mps 729 mmHg 42%
    01:00 +8°C° 0 mm 0 mps 729 mmHg 43%
    02:00 +7°C° 0 mm 0 mps 729 mmHg 45%
    03:00 +7°C° 0 mm 0 mps 729 mmHg 46%
    04:00 +7°C° 0 mm 0 mps 729 mmHg 48%
    05:00 +7°C° 0 mm 0 mps 729 mmHg 49%
    06:00 +7°C° 0 mm 0 mps 729 mmHg 49%
    07:00 +7°C° 0 mm 0 mps 730 mmHg 49%
    08:00 +7°C° 0 mm 0 mps 730 mmHg 49%
    09:00 +11°C° 0 mm 1 mps 730 mmHg 44%
    10:00 +13°C° 0 mm 2 mps 730 mmHg 39%
    11:00 +15°C° 0 mm 2 mps 730 mmHg 34%
    12:00 +16°C° 0 mm 3 mps 729 mmHg 32%
    13:00 +17°C° 0 mm 3 mps 729 mmHg 31%
    14:00 +18°C° 0 mm 3 mps 728 mmHg 30%
    15:00 +17°C° 0 mm 3 mps 728 mmHg 33%
    16:00 +16°C° 0 mm 3 mps 728 mmHg 36%
    17:00 +14°C° 0 mm 3 mps 727 mmHg 39%
    18:00 +12°C° 0 mm 3 mps 728 mmHg 43%
    19:00 +11°C° 0 mm 3 mps 728 mmHg 47%
    20:00 +10°C° 0 mm 3 mps 728 mmHg 51%
    21:00 +9°C° 0 mm 2 mps 728 mmHg 52%
    22:00 +9°C° 0 mm 2 mps 728 mmHg 53%
    23:00 +9°C° 0 mm 2 mps 728 mmHg 54%

    Day after tomorrow, 2 June, Tuesday

    Time Temperature Precipitation Wind Pressure Humidity
    00:00 +8°C° 0 mm 2 mps 728 mmHg 55%
    01:00 +8°C° 0 mm 2 mps 728 mmHg 56%
    02:00 +8°C° 0 mm 2 mps 728 mmHg 56%
    03:00 +8°C° 0 mm 2 mps 727 mmHg 56%
    04:00 +8°C° 0 mm 2 mps 727 mmHg 56%
    05:00 +9°C° 0 mm 1 mps 727 mmHg 56%
    06:00 +8°C° 0 mm 2 mps 727 mmHg 55%
    07:00 +9°C° 0 mm 2 mps 727 mmHg 53%
    08:00 +9°C° 0 mm 2 mps 727 mmHg 51%
    09:00 +13°C° 0 mm 2 mps 727 mmHg 45%
    10:00 +16°C° 0 mm 3 mps 727 mmHg 39%
    11:00 +18°C° 0 mm 3 mps 727 mmHg 33%
    12:00 +19°C° 0 mm 4 mps 726 mmHg 32%
    13:00 +20°C° 0 mm 5 mps 725 mmHg 30%
    14:00 +21°C° 0 mm 5 mps 724 mmHg 29%
    15:00 +20°C° 0 mm 5 mps 724 mmHg 32%
    16:00 +17°C° 0 mm 5 mps 723 mmHg 34%
    17:00 +16°C° 0 mm 5 mps 723 mmHg 37%
    18:00 +14°C° 0 mm 5 mps 723 mmHg 41%
    19:00 +13°C° 0 mm 5 mps 723 mmHg 44%
    20:00 +10°C° 0 mm 5 mps 723 mmHg 48%
    21:00 +10°C° 0 mm 5 mps 723 mmHg 50%
    22:00 +10°C° 0 mm 5 mps 723 mmHg 51%
    23:00 +9°C° 0 mm 5 mps 722 mmHg 53%

    3 June, Wednesday

    Time Temperature Precipitation Wind Pressure Humidity
    00:00 +9°C° 0 mm 5 mps 722 mmHg 54%
    01:00 +9°C° 0 mm 5 mps 722 mmHg 56%
    02:00 +8°C° 0 mm 5 mps 722 mmHg 57%
    03:00 +8°C° 0 mm 5 mps 721 mmHg 59%
    04:00 +8°C° 0 mm 5 mps 721 mmHg 61%
    05:00 +7°C° 0 mm 5 mps 721 mmHg 63%
    06:00 +7°C° 0 mm 5 mps 721 mmHg 64%
    07:00 +7°C° 0 mm 5 mps 722 mmHg 65%
    08:00 +7°C° 0 mm 5 mps 722 mmHg 67%
    09:00 +9°C° 0 mm 5 mps 722 mmHg 61%
    10:00 +10°C° 0 mm 5 mps 723 mmHg 56%
    11:00 +13°C° 0 mm 5 mps 723 mmHg 50%
    12:00 +13°C° 0 mm 5 mps 722 mmHg 50%
    13:00 +14°C° 0 mm 4 mps 722 mmHg 49%
    14:00 +14°C° 0 mm 4 mps 722 mmHg 49%
    15:00 +14°C° 0 mm 3 mps 722 mmHg 52%
    16:00 +13°C° 0 mm 3 mps 722 mmHg 55%
    17:00 +13°C° 0 mm 2 mps 723 mmHg 58%
    18:00 +13°C° 0 mm 2 mps 723 mmHg 61%
    19:00 +13°C° 0 mm 2 mps 724 mmHg 63%
    20:00 +12°C° 0 mm 2 mps 725 mmHg 66%
    21:00 +12°C° 0.2 mm 2 mps 725 mmHg 70%
    22:00 +10°C° 0.2 mm 2 mps 725 mmHg 75%
    23:00 +10°C° 0.2 mm 2 mps 726 mmHg 79%

    4 June, Thursday

    Time Temperature Precipitation Wind Pressure Humidity
    00:00 +10°C° 0.4 mm 2 mps 726 mmHg 81%
    01:00 +9°C° 0.4 mm 2 mps 726 mmHg 83%
    02:00 +9°C° 0.4 mm 3 mps 726 mmHg 86%
    03:00 +9°C° 0.8 mm 3 mps 726 mmHg 87%
    04:00 +9°C° 0.8 mm 3 mps 726 mmHg 88%
    05:00 +9°C° 0.8 mm 3 mps 725 mmHg 89%
    06:00 +9°C° 1.2 mm 3 mps 726 mmHg 89%
    07:00 +9°C° 1.2 mm 3 mps 726 mmHg 89%
    08:00 +9°C° 1.2 mm 3 mps 726 mmHg 89%
    09:00 +9°C° 1.5 mm 3 mps 726 mmHg 89%
    10:00 +9°C° 1.5 mm 3 mps 727 mmHg 88%
    11:00 +8°C° 1.5 mm 4 mps 727 mmHg 88%
    12:00 +8°C° 0.8 mm 4 mps 726 mmHg 87%
    13:00 +8°C° 0.8 mm 5 mps 726 mmHg 86%
    14:00 +8°C° 0.8 mm 5 mps 725 mmHg 84%
    15:00 +8°C° 0.4 mm 5 mps 726 mmHg 85%
    16:00 +8°C° 0.4 mm 4 mps 726 mmHg 85%
    17:00 +8°C° 0.4 mm 4 mps 726 mmHg 86%
    18:00 +8°C° 0.4 mm 4 mps 726 mmHg 87%
    19:00 +8°C° 0.4 mm 4 mps 726 mmHg 88%
    20:00 +8°C° 0.4 mm 4 mps 726 mmHg 89%
    21:00 +8°C° 0.1 mm 4 mps 726 mmHg 88%
    22:00 +8°C° 0.1 mm 4 mps 726 mmHg 87%
    23:00 +8°C° 0.1 mm 4 mps 726 mmHg 87%

    5 June, Friday

    Time Temperature Precipitation Wind Pressure Humidity
    00:00 +8°C° 0 mm 4 mps 726 mmHg 85%
    01:00 +8°C° 0 mm 4 mps 726 mmHg 83%
    02:00 +8°C° 0 mm 4 mps 725 mmHg 82%
    03:00 +8°C° 0 mm 4 mps 725 mmHg 81%
    04:00 +8°C° 0 mm 5 mps 725 mmHg 81%
    05:00 +8°C° 0 mm 5 mps 725 mmHg 80%
    06:00 +8°C° 0 mm 5 mps 725 mmHg 79%
    07:00 +8°C° 0 mm 5 mps 725 mmHg 79%
    08:00 +8°C° 0 mm 4 mps 725 mmHg 78%
    09:00 +10°C° 0 mm 5 mps 726 mmHg 73%
    10:00 +11°C° 0 mm 6 mps 726 mmHg 68%
    11:00 +13°C° 0 mm 6 mps 726 mmHg 63%
    12:00 +14°C° 0 mm 6 mps 726 mmHg 60%
    13:00 +14°C° 0 mm 6 mps 725 mmHg 57%
    14:00 +15°C° 0 mm 6 mps 725 mmHg 54%
    15:00 +14°C° 0 mm 5 mps 725 mmHg 57%
    16:00 +14°C° 0 mm 4 mps 725 mmHg 59%
    17:00 +13°C° 0 mm 3 mps 725 mmHg 62%
    18:00 +12°C° 0 mm 3 mps 725 mmHg 66%
    19:00 +12°C° 0 mm 2 mps 725 mmHg 69%
    20:00 +10°C° 0 mm 2 mps 725 mmHg 73%
    21:00 +10°C° 0 mm 2 mps 726 mmHg 75%
    22:00 +9°C° 0 mm 2 mps 726 mmHg 77%
    23:00 +9°C° 0 mm 2 mps 726 mmHg 79%
    Show more